TEMELIN Weather Reports


Display with metric or nautical units.
time (UTC)temp
F
wind
direction
speed
MPH
gust
MPH
rain 1hr
in
rain 24hr
in
rain mn
in
humidity
%
barometer
mb
20260903162138 72 280 9.0 0.0 0.00 0.00 0.00 46
20260903151823 72 280 9.0 0.0 0.00 0.00 0.00 49
20260903141823 73 260 14.0 0.0 0.00 0.00 0.00 43
20260903132031 77 280 12.0 0.0 0.00 0.00 0.00 38
20260903121822 73 290 12.0 0.0 0.00 0.00 0.00 40
20260903111817 72 280 12.0 0.0 0.00 0.00 0.00 46
20260903102220 70 300 9.0 0.0 0.00 0.00 0.00 46
20260903091819 68 280 12.0 0.0 0.00 0.00 0.00 56
20260903081818 66 280 9.0 0.0 0.00 0.00 0.00 59
20260903072032 64 250 5.0 0.0 0.00 0.00 0.00 67
20260903061818 61 230 5.0 0.0 0.00 0.00 0.00 77
20260903051818 59 220 5.0 0.0 0.00 0.00 0.00 82
20260903042221 59 220 2.0 0.0 0.00 0.00 0.00 77
20260903031819 61 210 2.0 0.0 0.00 0.00 0.00 72
20260903021818 61 40 2.0 0.0 0.00 0.00 0.00 72
20260903012031 63 280 5.0 0.0 0.00 0.00 0.00 67
20260903001820 61 230 5.0 0.0 0.00 0.00 0.00 67
20260902231818 61 40 2.0 0.0 0.00 0.00 0.00 67
20260902222221 64 260 5.0 0.0 0.00 0.00 0.00 59
20260902211820 63 260 5.0 0.0 0.00 0.00 0.00 63
20260902201820 64 280 5.0 0.0 0.00 0.00 0.00 59
20260902192025 66 270 5.0 0.0 0.00 0.00 0.00 55
20260902181818 68 290 5.0 0.0 0.00 0.00 0.00 52
20260902172031 70 310 7.0 0.0 0.00 0.00 0.00 49